Location: Clarion
(42.7316°N, 93.7330°W)
Time: 22:06:09
(UTC+00:00)

Cosmos 1048 Rocket - Pass Details

Date: 22 April 2026
Orbit: 739 x 786 km, 74.0° (Epoch: 12 May)

Event Time Altitude Azimuth Distance (km) Brightness Sun altitude
Rises 01:41:08 0° 339° (NNW) 3,196 8.0 -7.2°
Reaches altitude 10° 01:43:29 10° 338° (NNW) 2,273 7.2 -7.6°
Maximum altitude 01:48:38 83° 252° (WSW) 765 4.1 -8.4°
Drops below altitude 10° 01:53:49 10° 165° (SSE) 2,286 6.1 -9.3°
Enters shadow 01:56:11 - 164° (SSE) 3,213 6.8 -9.7°
